Theta_e
310 310 310 310 310 310 310 310 310 310 310 310 311 311 311 311 311 312 312 312 312 312 312 312 312 312 312 312 312 313 314 314 315 314 315 316 316 316 314 314 315 314 314 313 314 314 315 315 316 316 316 317 317 318 319 321 319 319 328 326 324 329 327 326 323 317 319 319 318 317 317 317 317 317 317 317 317 317 317 317 317 317 317 317 316 317 317 318
310 310 310 310 310 310 310 310 310 310 310 310 310 310 311 311 311 311 311 312 312 312 312 312 312 312 312 312 312 313 314 314 315 315 315 315 315 315 314 314 314 314 314 313 314 314 315 316 316 317 316 317 318 319 320 320 319 321 327 325 328 334 326 321 320 317 317 318 318 318 317 317 317 317 316 317 316 316 317 317 317 316 316 316 316 316 317 317
310 310 310 310 310 310 310 310 310 310 310 310 310 310 310 310 311 311 311 311 311 311 311 311 311 311 311 312 312 313 314 314 315 316 314 313 314 314 315 315 315 315 314 314 314 314 316 316 316 317 317 317 318 320 320 320 320 321 322 325 332 329 321 319 318 318 318 317 318 318 318 318 318 317 316 316 316 316 317 317 316 316 316 316 316 316 316 316
310 309 310 309 309 310 310 310 310 310 310 310 310 310 310 310 311 310 311 311 311 311 311 311 311 311 312 312 312 313 313 315 316 316 314 314 315 315 315 315 315 315 315 314 314 314 316 316 316 317 317 317 317 319 320 320 321 321 321 326 328 321 318 320 319 319 318 318 318 317 318 317 318 317 316 316 317 317 316 316 316 316 316 316 316 316 316 316
309 309 309 309 309 309 310 309 310 310 310 310 310 310 310 310 310 310 311 310 310 311 311 311 311 311 312 312 313 313 314 317 318 315 314 315 315 315 316 315 315 315 315 314 314 314 315 316 316 316 317 316 316 317 319 320 320 320 320 322 321 318 319 320 319 319 317 317 318 317 318 318 318 317 317 316 317 317 315 316 316 316 316 316 316 316 317 317
309 309 309 309 309 309 309 309 309 310 310 310 310 310 310 310 310 310 310 311 311 311 311 311 312 312 313 313 314 314 315 316 318 317 316 316 316 316 316 315 315 315 314 314 314 314 314 315 315 315 315 316 316 316 317 318 319 320 321 318 318 319 318 318 318 318 317 316 317 317 318 317 317 317 317 316 316 316 315 316 315 316 316 316 316 316 317 316
308 308 309 309 309 309 309 309 309 310 310 310 310 310 310 311 311 311 311 312 312 312 313 313 313 314 314 315 316 316 317 316 316 317 317 316 317 316 316 315 314 314 314 314 314 314 314 315 315 315 315 315 315 316 316 316 317 320 321 318 319 319 317 318 318 317 317 316 316 317 317 317 317 318 317 316 316 316 316 316 315 316 316 316 316 316 316 316
308 308 309 309 309 309 309 310 310 310 311 311 311 311 312 312 312 313 313 313 313 314 314 315 316 316 317 319 319 319 319 318 317 318 317 316 317 316 315 315 314 314 314 314 314 314 315 315 315 315 315 315 315 315 315 315 316 317 318 317 317 317 317 317 316 316 316 316 316 315 315 315 316 317 316 316 316 316 316 316 316 316 316 316 316 316 316 316
309 309 309 310 310 311 311 311 311 312 312 313 313 313 314 314 315 316 316 317 317 317 319 319 320 320 321 320 319 320 321 321 321 321 320 318 317 316 315 315 315 315 315 315 315 315 316 315 316 316 315 316 315 315 315 316 317 316 315 315 314 315 315 315 315 315 315 315 315 314 314 314 315 316 316 316 316 316 316 316 316 316 316 316 316 316 316 316
311 311 312 312 313 313 314 314 315 316 316 317 317 318 318 318 319 319 319 320 319 320 320 319 319 319 319 318 318 320 322 322 322 321 320 319 317 316 316 317 316 315 315 315 315 315 316 316 316 316 316 316 315 315 315 315 316 315 314 314 314 314 315 315 315 315 315 314 314 313 313 313 314 315 316 316 316 316 316 316 316 316 316 316 316 316 316 316
315 315 316 317 317 318 318 319 319 319 319 319 319 319 319 318 318 317 317 317 317 317 316 316 315 315 315 314 315 318 320 320 321 321 321 320 319 318 318 319 319 318 316 315 315 315 316 316 316 316 317 315 314 314 315 314 315 314 314 314 314 314 314 314 314 314 314 313 314 314 313 313 313 315 315 316 317 316 316 316 316 316 316 316 316 316 316 316
317 318 318 318 318 319 318 319 318 318 317 317 317 316 316 315 315 315 315 315 315 315 314 314 314 314 314 312 313 317 317 317 318 318 319 319 319 318 318 318 319 320 318 315 315 316 316 316 316 316 316 315 315 315 315 314 314 314 314 315 315 313 314 314 313 314 313 313 314 313 314 315 315 315 316 316 316 316 315 315 315 316 316 315 316 316 316 315
317 317 317 316 317 317 316 316 315 315 315 315 315 314 314 315 314 314 315 314 315 315 314 314 314 313 313 312 315 317 316 316 316 316 316 316 317 317 317 317 317 318 317 315 315 316 317 316 316 316 316 315 315 315 315 314 314 315 314 314 315 315 315 315 313 315 313 313 314 314 316 320 318 315 316 316 316 315 315 315 316 316 316 315 315 315 315 314
315 315 315 315 315 315 315 314 314 314 314 314 314 314 314 313 314 314 314 314 315 315 315 315 314 313 312 313 316 316 316 316 315 316 316 315 316 316 315 315 316 316 315 314 314 316 317 317 316 316 315 315 315 315 315 314 314 314 313 315 316 315 319 318 313 315 315 313 314 314 317 320 319 316 316 316 316 315 315 316 317 316 316 315 315 314 313 313
313 314 314 314 314 313 313 313 313 313 313 313 313 313 313 313 314 315 315 316 316 317 317 316 315 314 313 314 316 316 316 315 315 315 316 315 315 315 315 315 315 315 314 314 314 315 316 317 316 315 315 314 314 314 316 316 317 315 314 321 320 316 320 319 314 315 316 315 313 314 317 319 317 315 316 317 317 316 315 316 316 315 314 314 314 313 313 313
312 312 312 312 312 312 312 312 312 312 312 312 313 313 314 316 317 317 318 318 318 319 318 317 316 314 314 315 316 316 316 316 316 316 316 315 315 315 315 315 314 314 314 313 314 314 315 315 315 314 314 314 315 315 318 319 321 319 316 320 322 317 318 318 317 315 314 315 313 314 317 318 316 315 316 316 316 316 315 315 314 313 313 313 313 313 313 313
312 312 312 312 312 311 311 312 312 312 313 313 314 315 317 319 320 320 320 319 320 319 317 316 316 314 314 315 316 316 316 316 316 315 315 314 314 314 314 314 314 314 313 313 313 313 314 313 313 314 313 314 315 315 319 320 321 323 319 318 321 319 316 318 321 316 313 315 315 314 315 315 316 314 314 316 316 315 314 314 314 313 313 313 313 312 311 311
311 311 311 311 311 311 311 312 313 313 314 315 317 319 320 321 321 321 321 320 319 317 315 314 314 316 317 316 316 317 316 316 315 315 314 314 314 314 314 314 314 313 312 312 313 312 313 312 313 316 314 313 314 314 318 320 320 322 322 319 320 319 317 318 319 318 316 317 316 317 316 315 315 313 313 315 315 314 313 314 313 313 313 312 311 310 309 309
311 311 311 311 311 312 313 314 314 316 317 319 320 321 322 321 321 321 320 318 317 318 319 315 315 319 320 317 317 318 317 316 316 316 315 316 316 315 314 314 314 313 312 314 314 312 312 313 314 316 316 316 315 313 316 318 317 319 319 318 318 318 318 317 317 317 317 317 317 318 317 316 316 315 313 314 315 313 313 313 312 313 312 311 309 308 307 307
311 311 311 312 313 313 314 315 317 318 320 322 323 322 322 322 323 322 318 317 317 320 321 318 317 319 319 319 319 319 318 317 317 318 317 317 316 315 314 313 313 312 313 317 318 312 312 316 317 318 318 317 316 314 314 314 314 315 316 316 317 317 317 317 317 317 315 316 318 318 317 316 316 316 314 313 314 313 312 312 313 312 310 308 308 307 307 306
311 312 313 314 315 315 316 317 319 321 322 323 323 323 322 322 323 322 319 319 320 320 321 320 320 319 319 320 320 321 320 318 318 317 317 316 315 315 314 313 313 314 314 315 316 313 313 317 319 319 318 317 316 314 313 314 314 315 316 317 318 318 318 316 316 317 314 315 319 319 316 316 315 315 314 313 313 312 311 311 311 310 308 307 307 306 306 306
312 314 314 315 315 316 318 319 322 323 324 324 323 322 322 321 322 321 319 320 321 321 322 322 322 322 322 321 320 322 321 319 317 316 316 315 315 315 314 313 315 318 316 314 314 315 315 317 318 316 314 315 315 314 314 316 316 316 318 319 319 319 319 318 318 317 314 315 319 319 316 315 316 315 313 312 312 310 310 310 308 308 307 306 306 305 306 306
313 314 315 316 317 319 321 322 323 324 324 324 323 323 322 321 321 320 319 318 319 321 321 321 322 321 322 321 321 320 319 319 318 317 316 315 315 315 314 313 315 318 317 316 317 317 318 319 316 313 312 314 315 315 316 316 317 319 319 319 320 319 318 320 320 318 316 315 317 317 317 317 316 315 313 310 310 310 308 308 307 306 305 305 305 305 306 306
315 316 318 318 320 322 323 324 324 324 324 324 323 322 321 321 320 319 317 316 319 320 320 320 320 320 320 320 319 319 318 318 318 317 317 315 315 315 314 313 314 316 316 315 316 317 319 318 315 313 315 316 316 316 317 317 319 322 322 319 320 319 317 319 319 317 317 318 318 316 320 325 321 317 314 310 310 309 307 307 306 305 304 304 304 304 305 305
316 318 319 320 322 323 324 324 324 323 323 322 321 321 321 321 320 318 316 318 321 321 319 319 318 318 318 317 318 318 316 316 316 317 316 314 315 315 314 314 315 316 317 316 316 316 317 315 315 317 317 317 317 318 319 318 319 323 324 321 320 319 319 320 321 319 319 322 319 314 320 329 326 321 318 311 309 309 307 306 305 304 304 304 304 303 303 304
317 318 319 320 322 323 324 324 323 322 322 322 321 321 321 320 319 318 318 322 325 323 319 318 318 317 315 315 315 315 315 315 314 316 315 314 314 314 314 315 315 317 318 317 317 319 317 315 318 321 321 319 318 320 322 319 318 321 322 321 322 321 319 321 320 318 321 323 318 313 318 322 320 319 318 313 311 309 306 305 304 304 303 303 303 302 303 303
318 318 319 320 321 322 323 323 323 323 322 322 322 321 320 319 318 317 320 326 328 323 319 317 316 315 312 312 312 314 318 316 313 314 314 314 314 313 314 316 315 316 315 315 320 321 317 316 318 320 320 319 319 321 321 321 320 322 321 319 321 320 316 318 315 316 321 320 318 317 315 316 316 317 316 314 313 310 306 306 304 303 302 302 301 302 302 302
318 318 318 320 322 323 322 323 324 323 322 323 321 319 319 319 318 317 323 330 328 320 317 314 314 313 311 311 312 313 315 314 314 314 312 313 313 312 313 315 315 315 313 315 323 321 316 318 320 319 319 319 322 323 321 321 322 324 320 315 316 315 314 316 314 317 319 316 319 322 315 315 321 322 317 314 316 312 308 306 304 302 302 301 301 301 300 301
319 319 319 321 324 324 323 323 324 323 322 322 320 319 319 318 317 317 324 328 325 318 315 313 312 312 310 310 311 311 310 311 313 313 311 312 312 311 312 312 311 313 312 314 322 321 316 316 317 320 321 319 323 323 321 322 320 317 317 317 319 318 316 316 315 317 316 315 320 323 317 316 323 329 321 314 317 316 309 306 304 302 301 300 300 300 299 300
320 319 319 321 323 323 323 324 324 323 322 320 319 319 319 319 318 321 326 326 322 319 314 311 313 312 310 310 311 310 310 311 311 311 310 311 312 311 311 311 309 314 318 318 320 319 314 311 312 316 318 318 320 317 315 318 315 312 316 321 323 322 320 318 318 318 315 319 325 322 319 317 321 332 325 315 318 315 309 306 303 301 300 299 299 298 298 299
322 321 320 321 322 321 322 324 324 323 320 319 319 318 319 319 320 325 327 321 319 320 313 312 314 311 311 314 314 311 310 311 310 312 313 312 312 310 311 313 312 317 323 322 320 317 313 313 313 314 313 313 316 315 313 313 312 313 319 322 322 324 325 320 320 320 317 324 331 324 320 316 318 329 323 314 314 312 308 306 303 301 300 298 297 298 297 298
323 323 322 322 321 322 323 324 323 322 319 318 318 318 319 321 322 325 324 319 321 322 316 316 316 312 313 317 318 315 312 312 310 312 315 315 315 313 315 320 319 319 323 323 323 319 317 318 315 313 312 312 315 317 316 314 314 316 319 320 321 323 325 323 321 321 321 326 327 322 321 318 318 324 318 311 309 308 307 305 302 300 299 297 297 297 297 298
323 323 323 322 322 323 323 323 323 321 319 318 318 318 321 323 323 323 322 322 323 320 317 318 317 317 318 318 320 319 316 316 312 311 315 315 316 316 317 321 321 319 320 322 323 322 323 322 315 313 314 313 314 316 318 320 316 315 316 320 323 322 322 325 323 320 321 324 323 320 320 321 323 320 311 306 304 303 303 302 300 300 298 297 296 296 297 299
323 322 322 322 322 322 323 322 322 321 319 318 318 320 322 323 323 322 322 323 322 319 318 319 317 317 319 320 323 322 318 318 314 312 315 315 316 319 319 317 316 318 320 319 321 321 323 324 319 318 317 314 314 313 320 327 318 313 317 320 323 325 324 323 322 320 322 325 325 320 319 324 328 317 305 302 301 300 301 300 299 299 298 297 296 296 298 300
321 321 321 321 320 321 321 321 321 320 319 318 318 321 322 322 323 323 323 323 321 320 319 318 318 319 321 323 324 322 319 319 316 314 317 318 319 323 325 320 315 316 319 321 322 319 319 324 322 317 314 314 314 313 317 324 319 313 316 319 321 324 324 321 322 321 320 323 323 320 322 324 318 308 302 302 301 300 300 299 299 298 297 297 297 297 299 300
319 319 319 319 320 320 320 321 321 320 319 318 320 321 321 322 323 324 324 321 321 322 320 319 321 321 322 323 324 322 318 319 320 317 319 319 319 323 325 322 317 316 318 322 323 319 317 323 320 314 312 312 313 313 313 317 320 317 316 320 323 323 321 320 322 321 318 319 320 319 322 319 311 307 304 302 301 300 299 298 298 298 297 297 298 298 299 300
319 318 318 318 319 320 320 321 321 320 319 318 320 321 319 320 321 322 322 319 319 321 321 322 322 321 322 323 323 323 319 319 320 319 322 322 319 321 321 319 317 315 316 318 320 321 319 321 320 317 317 314 310 311 312 312 316 319 318 321 320 318 320 320 321 321 319 319 320 319 319 317 315 313 306 303 303 301 299 298 297 297 297 297 298 299 300 301
318 318 317 318 318 318 318 319 319 319 319 319 320 321 320 320 319 318 319 318 318 321 321 323 323 321 323 323 323 324 322 321 320 320 323 323 319 320 320 317 315 313 313 314 318 322 321 321 322 319 319 317 312 313 316 313 312 314 316 317 316 317 320 320 319 320 319 317 319 320 319 318 319 316 308 305 305 302 300 299 298 297 297 297 298 300 301 301
316 315 315 316 317 316 316 317 318 319 319 319 320 320 320 320 318 317 318 317 318 321 322 323 323 322 323 323 323 323 321 321 322 320 321 322 319 318 318 318 316 312 312 314 319 321 321 323 323 319 317 318 317 318 322 320 314 312 313 316 317 317 318 318 319 320 319 316 317 318 317 317 318 315 310 308 304 301 300 301 299 298 297 298 300 301 301 301
313 312 313 314 315 314 315 316 317 318 319 319 319 318 318 318 318 317 317 317 318 320 321 322 322 322 322 321 321 321 320 320 321 320 320 321 319 318 318 317 317 314 312 313 317 320 320 321 321 320 318 317 319 320 322 322 318 315 316 316 316 317 318 317 317 318 318 317 317 316 316 318 315 308 307 307 304 300 300 301 300 298 298 300 301 301 301 301
309 309 311 312 312 312 314 316 317 317 318 319 318 318 317 317 317 316 316 316 316 317 317 319 320 321 321 320 319 319 319 320 319 319 319 319 318 318 316 313 313 314 314 316 319 318 316 318 321 321 319 318 321 321 317 319 321 320 319 319 319 319 318 317 316 317 317 317 318 316 317 318 312 305 304 304 302 300 299 300 299 299 301 302 301 302 301 300
306 307 310 310 309 310 313 316 316 316 317 318 317 317 317 315 315 316 315 315 315 315 315 316 318 319 319 319 318 317 318 319 319 318 318 318 318 318 314 310 310 313 315 317 317 313 311 316 319 319 317 317 319 317 312 314 320 321 318 318 320 319 318 317 316 317 317 316 316 315 315 315 309 304 304 302 301 300 300 300 300 301 302 302 302 302 300 299
305 308 310 309 309 310 313 315 316 315 315 316 316 316 316 314 314 315 315 315 315 315 315 315 316 316 317 317 316 317 317 318 319 319 318 319 317 314 311 310 311 313 314 316 316 312 312 317 318 318 318 317 316 315 312 313 316 317 315 315 317 317 316 316 315 315 315 314 315 315 315 315 308 303 302 301 300 300 300 302 303 302 303 302 301 300 299 297
305 308 310 309 309 311 313 314 315 315 314 314 315 316 315 315 314 314 314 315 315 316 315 315 315 315 316 316 315 316 316 317 318 317 319 319 315 310 309 310 312 312 312 314 314 313 313 316 315 316 316 315 314 315 314 315 315 314 313 313 313 313 313 313 313 314 313 313 314 314 314 314 309 303 301 302 301 301 300 301 303 303 303 303 301 299 298 296
306 308 309 309 309 311 312 313 313 313 314 313 314 314 314 315 314 314 314 314 314 315 314 315 314 313 315 315 315 315 316 316 317 316 316 316 312 308 307 309 310 309 309 310 311 312 315 315 314 314 313 312 313 314 314 314 314 312 313 313 312 312 313 312 311 312 313 312 311 311 312 312 308 304 303 304 303 302 301 301 301 302 302 302 300 298 297 295
306 308 309 308 309 310 311 311 311 312 313 313 313 313 313 314 314 313 314 314 314 314 314 314 314 313 315 315 314 315 315 315 315 315 315 314 312 309 307 307 308 307 307 308 309 312 314 313 313 313 313 311 311 311 311 311 311 310 311 311 310 310 310 310 310 311 311 310 309 309 309 310 308 306 306 306 305 304 302 300 300 300 300 300 299 297 295 294
305 307 309 309 309 309 309 310 311 311 311 312 313 313 313 314 313 312 313 313 313 313 312 312 313 313 314 315 314 314 314 314 314 314 314 314 311 308 306 306 307 307 308 308 308 311 312 311 311 312 311 311 311 310 310 309 309 309 309 309 309 308 308 308 309 309 309 308 308 308 307 307 307 306 306 307 307 306 303 300 300 300 299 299 297 296 295 294
304 305 306 308 309 309 309 310 310 310 311 311 311 312 313 313 313 313 313 312 311 312 312 312 313 314 315 315 314 314 313 312 312 313 313 312 310 308 307 305 305 305 306 306 306 309 312 311 310 310 310 310 309 308 308 308 307 307 307 307 307 306 306 306 306 306 308 307 306 306 305 305 305 305 305 304 304 304 302 301 301 300 299 298 296 295 294 294
303 302 302 304 306 307 308 309 309 310 310 310 311 312 312 312 312 312 313 313 312 312 311 312 313 313 314 314 313 313 313 312 312 312 312 311 309 309 309 307 305 304 304 306 305 306 309 309 308 308 308 308 307 306 306 306 306 305 305 305 305 304 304 304 304 304 306 306 305 305 305 305 304 303 304 302 300 299 299 299 299 299 297 296 295 294 294 294
301 301 300 301 303 304 306 309 309 309 310 310 311 311 310 311 311 311 311 312 314 313 311 311 313 313 313 313 312 312 312 312 314 312 310 310 309 309 309 309 305 303 303 305 304 303 305 307 306 306 306 307 305 304 304 306 306 304 304 304 303 303 303 303 302 303 303 303 304 304 304 304 303 300 299 299 298 297 297 297 297 297 296 295 294 294 293 293
299 299 298 299 302 304 305 307 308 309 309 310 310 309 309 310 310 310 310 309 310 312 311 311 312 312 310 310 311 310 308 308 310 308 305 307 308 307 307 306 304 304 304 304 304 305 306 305 304 305 305 305 303 301 303 305 304 303 302 301 301 301 301 302 302 302 303 302 302 302 302 303 302 298 296 296 295 294 294 294 295 295 295 294 293 293 292 292
298 298 297 297 300 303 304 306 308 308 308 308 308 308 308 308 308 309 310 307 305 307 309 308 309 309 309 309 310 308 304 303 305 303 302 303 303 302 303 303 302 304 304 303 303 305 306 305 305 305 303 302 301 301 302 302 301 300 300 299 299 299 299 300 300 301 301 300 301 301 300 301 301 299 299 297 293 291 292 292 292 293 293 293 292 292 292 291
Wind_Speed
5 5 5 4 4 4 4 4 4 4 4 4 4 4 4 4 4 4 4 5 5 6 6 6 7 8 9 10 11 12 13 14 15 17 17 12 9 7 1 4 6 6 6 5 3 3 4 2 3 2 2 3 1 2 2 2 3 2 2 3 1 3 3 4 3 3 1 3 4 2 1 3 2 5 6 6 9 13 16 22 22 18 19 20 22 22 23 24
5 5 5 5 5 5 5 5 5 5 5 5 5 5 5 5 5 6 6 6 7 7 8 8 9 9 10 11 11 13 14 15 18 16 12 6 0 3 4 5 7 6 6 5 4 2 1 3 4 2 2 3 2 3 3 3 5 4 2 2 3 5 5 6 6 8 5 3 6 5 5 5 4 9 10 5 10 13 13 21 24 21 22 20 18 19 19 19
6 6 6 6 6 6 6 6 6 6 6 6 6 6 6 6 7 7 7 8 8 9 9 10 10 10 11 11 12 14 14 18 17 9 5 5 8 7 4 8 9 8 7 5 4 2 4 2 4 3 4 4 3 5 5 4 4 6 4 2 6 6 6 13 14 14 13 9 6 6 7 9 11 12 10 7 11 12 10 16 20 23 27 22 18 18 18 18
7 7 7 7 7 7 7 7 7 7 7 7 7 7 8 8 8 9 9 9 10 10 10 11 11 11 12 12 13 13 16 16 9 2 3 4 6 5 7 12 12 11 8 6 5 2 5 4 3 3 5 4 5 6 6 7 6 5 6 4 7 5 5 13 16 18 20 13 9 9 10 11 13 13 11 10 9 7 12 19 20 26 33 28 24 23 24 23
8 8 8 8 8 8 8 8 8 8 8 8 8 8 9 9 9 10 10 11 11 11 11 12 12 12 13 13 13 13 13 8 2 2 0 1 4 8 11 13 14 12 9 6 5 3 5 6 5 4 4 4 4 3 5 12 11 4 6 11 11 7 5 11 16 18 19 16 12 11 9 11 14 15 16 11 8 11 19 25 25 30 34 32 29 27 26 26
9 9 9 9 9 9 9 9 9 9 9 9 9 9 9 10 11 11 11 12 12 12 12 13 13 13 14 14 14 14 9 2 2 2 6 9 10 12 13 15 14 12 9 4 4 3 4 5 6 5 3 3 4 4 7 13 12 5 6 11 15 15 9 13 19 19 21 16 12 11 11 14 13 17 20 13 16 26 30 31 30 32 33 33 31 29 28 27
10 10 10 10 10 10 10 10 10 10 10 10 10 10 11 11 11 12 13 13 13 14 14 15 15 15 15 15 15 12 8 10 11 10 12 13 12 13 14 14 11 8 6 3 4 3 2 4 7 7 3 3 5 7 11 13 10 8 5 6 13 15 12 15 19 20 19 15 15 16 16 14 10 14 18 18 27 35 34 31 30 30 30 30 30 28 27 25
11 11 11 11 10 10 10 10 11 11 11 11 11 12 12 13 13 13 14 14 15 15 16 16 16 16 15 14 13 11 11 16 14 11 12 11 11 13 11 9 6 5 4 3 4 2 2 3 7 8 3 4 6 6 9 10 5 6 5 4 6 9 12 16 19 21 22 22 23 20 18 18 16 17 18 25 34 33 28 27 25 24 25 25 25 23 22 21
11 11 11 11 11 11 11 11 11 12 12 12 12 13 13 14 14 14 15 15 16 15 16 16 16 16 14 13 11 9 13 14 10 8 9 10 12 12 9 7 5 5 4 5 5 4 4 5 6 7 4 4 6 7 8 5 3 4 5 7 8 11 15 18 20 24 26 28 25 15 17 22 20 15 15 26 30 25 26 27 24 22 23 24 23 22 20 19
11 11 11 11 11 12 12 12 13 13 13 13 13 14 14 14 14 14 14 14 14 15 14 14 15 14 13 13 7 5 10 10 7 7 7 10 11 11 10 9 8 7 6 6 7 7 8 7 7 5 5 6 4 7 8 3 4 8 11 13 13 14 20 21 20 29 29 26 26 13 13 24 18 6 9 24 25 23 27 27 26 24 23 25 24 23 21 20
12 12 12 12 12 13 13 13 13 13 13 13 13 13 13 12 12 12 12 12 12 12 12 12 13 12 13 12 9 8 11 11 9 9 9 11 12 12 13 13 12 10 9 8 9 9 10 10 10 6 5 4 4 8 9 5 6 10 12 12 15 15 21 23 19 30 25 15 22 14 11 21 11 4 14 26 24 23 28 27 27 24 22 23 23 23 22 21
13 13 13 13 13 13 12 12 12 12 12 12 11 11 11 11 10 11 11 11 11 11 11 11 11 11 12 13 14 13 13 12 13 14 14 15 15 15 17 16 13 10 11 11 11 11 11 13 12 8 5 3 4 6 6 6 9 12 10 6 11 9 13 22 18 25 18 7 15 9 5 11 4 9 21 25 24 24 26 25 24 22 21 21 20 21 22 21
13 13 13 13 12 12 12 12 11 11 11 10 10 10 9 9 9 9 9 10 10 10 10 11 11 11 10 12 15 13 11 11 12 14 16 17 18 18 17 14 11 10 11 11 13 13 12 14 14 11 9 6 4 4 6 9 10 11 7 0 7 6 6 17 15 16 12 6 10 9 2 7 7 16 22 20 22 22 20 20 23 25 26 25 23 25 21 16
12 12 12 12 11 11 11 11 11 10 10 9 9 8 8 8 8 8 8 9 9 9 10 10 11 11 10 12 13 12 11 12 12 13 14 16 17 16 14 12 10 10 10 11 13 13 12 12 13 11 10 8 8 8 7 9 7 6 3 1 3 2 5 13 11 9 6 4 10 13 3 7 7 15 19 16 18 19 18 24 30 30 28 28 27 23 13 8
11 11 11 11 10 10 10 10 10 9 8 8 7 7 6 6 7 7 7 8 8 9 9 10 10 9 10 13 12 11 11 12 12 11 11 13 14 13 11 9 8 8 8 10 12 13 12 10 10 8 7 8 8 5 4 4 4 2 2 3 2 3 4 11 13 9 4 2 7 9 3 6 7 14 18 15 19 21 22 29 32 25 24 24 18 11 6 8
10 10 10 10 9 9 9 8 8 7 7 6 6 5 5 6 6 7 8 8 9 10 9 9 8 7 6 9 9 6 7 8 8 8 9 10 10 9 6 4 4 6 8 10 12 12 11 9 6 4 5 6 3 2 4 4 4 2 2 3 4 4 3 5 10 7 4 3 1 4 3 4 5 11 16 16 21 23 24 31 27 19 19 13 11 13 12 10
9 9 9 9 8 8 7 7 6 6 5 5 5 5 5 6 7 8 9 9 10 10 8 7 6 5 7 9 7 6 7 7 5 6 6 7 7 5 3 3 3 5 7 8 10 9 8 6 4 3 4 3 2 4 4 2 4 4 2 3 4 5 4 3 7 6 2 3 3 4 4 6 7 10 16 20 24 25 25 28 24 18 11 11 15 16 16 14
9 8 8 8 7 7 6 6 5 4 4 4 5 5 6 7 7 8 9 9 9 6 6 7 5 2 6 8 6 6 7 7 6 5 5 6 6 5 4 4 3 4 6 5 6 6 5 5 5 1 1 1 2 4 2 5 5 4 4 4 5 5 4 5 5 5 3 3 4 5 6 9 9 10 19 26 27 25 22 24 21 11 11 17 17 20 20 18
8 7 7 8 7 7 6 5 4 4 4 4 5 6 7 7 6 6 6 7 7 4 2 6 7 2 3 5 7 8 8 8 8 8 9 8 7 7 5 4 4 5 6 3 3 8 8 3 3 1 2 4 5 7 9 9 8 7 7 5 5 5 5 6 7 6 6 5 5 7 8 7 8 9 15 26 27 19 19 21 12 8 18 20 21 23 22 22
8 8 8 8 7 6 5 4 4 3 3 3 5 5 5 4 3 2 4 7 9 8 7 9 10 12 13 11 9 9 9 8 9 10 9 7 6 7 8 7 6 5 4 4 3 8 10 4 2 5 6 8 10 11 11 9 8 8 7 6 6 5 5 6 6 7 6 4 6 7 6 6 8 7 13 26 25 17 17 13 6 18 20 21 24 24 23 23
8 9 8 8 7 6 5 4 3 3 4 3 4 4 3 2 1 2 5 9 12 13 15 17 17 19 20 18 14 15 14 9 9 9 7 7 7 7 9 9 5 3 4 5 4 4 8 4 6 9 10 12 11 10 8 7 7 7 6 5 5 4 6 5 6 8 6 3 5 5 6 7 9 9 18 23 15 11 7 7 16 20 21 22 23 23 24 23
9 9 8 8 7 6 5 4 3 3 4 4 4 3 3 3 3 4 5 8 14 15 16 18 19 21 23 21 21 22 17 9 8 9 7 8 10 7 9 9 4 3 4 4 5 3 4 4 9 13 12 10 9 7 6 8 7 6 4 4 4 4 4 5 5 6 5 2 4 6 6 7 9 12 16 11 8 12 15 21 19 20 23 21 22 23 23 24
8 8 8 8 7 6 5 4 4 4 4 4 4 4 3 3 3 5 5 5 12 15 14 17 21 23 24 21 19 19 15 9 7 9 10 10 12 10 10 9 5 4 4 4 6 5 4 6 13 16 11 7 8 8 7 7 5 4 4 4 5 4 2 4 5 6 5 2 3 5 6 5 8 9 7 10 16 19 22 25 24 24 25 22 22 23 24 26
8 8 7 8 6 6 5 4 4 4 4 3 3 3 2 2 3 5 6 4 6 11 14 16 16 16 17 16 15 13 10 7 6 8 11 13 13 9 9 10 7 4 5 7 9 8 5 8 12 10 6 7 9 9 7 5 4 3 4 4 5 4 3 5 4 5 5 4 2 4 6 4 6 6 2 8 13 17 18 21 23 22 23 23 24 24 25 26
10 9 8 7 6 5 5 4 4 4 3 2 2 2 0 2 3 6 5 2 3 7 9 9 8 8 9 11 12 10 6 5 6 8 13 16 14 6 5 9 8 4 6 7 7 7 7 9 9 6 5 7 7 7 6 5 2 4 4 6 6 5 4 3 3 5 5 5 3 5 5 5 5 5 3 4 7 9 11 14 17 17 19 22 24 24 24 25
12 10 9 8 6 5 5 4 3 3 3 3 3 2 1 1 2 5 4 2 2 4 3 4 4 4 5 6 8 7 3 4 6 11 15 15 13 6 2 5 5 4 6 5 2 2 5 7 5 5 6 6 6 6 6 6 3 3 4 5 6 5 3 1 4 4 2 2 3 4 1 6 3 6 7 4 7 5 7 9 11 15 17 20 22 22 22 24
14 13 11 9 7 6 6 5 5 5 4 4 3 3 2 1 1 3 3 2 3 2 3 3 3 3 4 5 9 8 2 3 8 11 14 12 10 7 3 2 2 3 3 3 1 2 4 3 3 5 4 4 5 6 5 7 6 3 5 5 6 4 1 1 3 1 3 2 5 2 4 4 3 7 9 5 8 3 5 6 7 13 16 18 20 19 21 22
16 15 13 10 8 8 8 7 8 8 7 6 4 4 3 1 1 1 3 1 2 2 3 2 2 4 5 7 10 7 3 6 6 6 12 10 8 5 3 4 2 3 3 5 3 5 2 4 5 5 4 3 5 6 4 7 4 5 5 5 4 2 2 2 3 2 2 1 5 5 4 2 4 6 4 5 6 2 4 4 5 9 13 16 17 17 18 21
18 17 14 11 11 12 12 12 12 11 10 9 7 5 3 2 1 2 3 1 1 2 2 2 3 5 6 7 7 5 4 4 2 5 8 8 8 4 1 3 1 2 3 3 5 5 0 3 5 6 5 5 6 5 3 6 3 4 4 3 4 2 1 2 4 2 1 1 4 6 4 2 5 5 2 3 4 5 4 4 5 9 13 15 16 17 17 19
19 18 16 14 14 16 16 17 16 13 12 10 8 7 4 2 1 2 3 3 0 1 3 3 2 5 7 5 2 3 4 2 3 7 5 4 7 3 0 1 1 2 2 3 2 4 1 1 0 3 5 6 5 0 2 4 4 4 5 4 6 5 3 2 2 3 3 2 6 8 7 5 3 5 2 2 3 8 8 5 6 9 12 14 15 17 17 19
20 20 20 18 18 17 18 19 16 14 13 10 9 8 5 1 1 3 4 1 1 1 3 2 1 5 6 4 2 3 3 3 5 7 3 2 4 1 1 0 1 3 3 5 3 4 2 1 2 3 5 4 5 2 3 3 3 5 5 4 4 4 4 4 4 3 2 4 7 6 6 7 4 5 4 2 2 6 9 8 9 9 12 14 15 16 17 19
22 22 22 21 19 18 19 18 14 15 14 10 10 9 6 1 2 3 2 1 0 2 3 3 3 4 4 3 3 4 3 3 5 5 3 3 3 2 2 3 3 1 3 2 2 3 2 4 4 1 2 5 5 2 3 5 4 5 4 5 3 2 3 2 2 0 2 6 5 3 3 4 6 6 2 4 7 4 7 10 13 14 15 15 15 16 17 19
20 19 18 18 16 17 18 15 12 15 15 12 11 7 4 2 4 3 3 2 1 1 2 2 2 3 5 4 2 3 3 3 5 5 3 4 3 3 4 5 5 3 2 4 1 2 2 5 3 0 2 6 8 4 2 2 1 5 4 4 4 2 1 3 3 2 3 5 5 3 1 0 4 4 3 5 6 8 16 20 20 20 19 17 16 17 18 19
14 14 14 15 14 15 15 13 11 14 15 15 10 5 2 5 3 4 6 5 1 1 1 2 3 3 3 3 4 4 3 2 5 5 3 4 3 3 4 6 6 4 2 2 1 2 2 5 3 4 2 7 9 6 5 4 3 4 4 5 5 4 4 3 3 3 3 5 4 2 0 2 3 1 3 6 9 16 22 23 22 21 19 17 16 17 18 19
14 14 14 14 15 16 15 14 13 14 16 16 9 2 5 5 2 3 5 4 1 1 1 1 4 3 1 2 3 3 3 3 3 4 3 4 4 4 3 5 7 6 3 2 2 2 3 5 5 2 2 8 6 3 5 6 1 2 3 4 2 3 4 2 3 4 3 4 4 2 2 3 3 2 4 7 11 15 19 20 20 18 16 16 16 16 17 17
15 15 16 16 18 18 16 16 15 15 18 15 6 4 6 3 2 3 2 3 3 3 3 0 2 3 3 2 2 3 3 2 2 3 1 4 4 5 5 3 5 8 6 4 3 1 2 5 4 3 1 6 5 2 3 3 1 1 2 2 4 4 5 2 4 2 2 3 4 2 2 2 2 2 2 5 7 9 10 13 15 15 14 15 15 15 16 14
16 16 17 18 20 19 18 18 16 17 21 14 5 6 4 2 4 4 0 1 2 3 5 3 2 4 4 2 3 4 2 0 2 3 2 3 2 5 6 1 0 7 10 6 2 3 3 3 4 1 1 5 3 2 1 2 3 3 2 4 3 1 3 2 1 2 1 4 4 2 4 4 2 2 0 3 5 5 5 7 10 12 13 14 14 15 13 11
16 16 17 18 20 19 19 20 18 19 18 10 7 7 3 2 6 5 2 1 1 2 3 4 3 3 4 3 3 3 3 1 3 3 1 2 3 3 5 1 3 1 6 7 2 1 3 1 6 2 2 3 1 3 2 4 4 4 3 3 1 1 1 0 1 2 3 4 4 5 6 5 4 4 3 4 5 6 5 5 7 8 11 13 14 13 10 8
13 11 12 16 19 19 19 19 21 21 13 5 6 7 2 2 5 7 5 2 1 2 2 4 3 1 2 4 2 1 2 3 3 2 1 2 3 0 3 2 1 4 4 6 5 1 2 2 4 4 0 1 3 3 2 3 3 3 2 2 1 3 3 2 2 3 3 4 4 5 6 4 3 4 5 7 8 8 7 5 5 8 12 14 13 10 7 6
11 6 7 13 14 16 18 20 22 18 8 4 6 3 1 2 5 7 7 4 1 2 2 2 2 2 2 3 2 1 1 1 2 1 1 2 3 2 3 2 1 2 6 7 4 1 2 2 3 4 4 1 1 1 5 4 1 2 1 1 1 1 1 1 2 2 3 4 4 5 6 4 2 2 4 7 8 8 8 7 6 10 14 14 11 8 6 5
11 4 6 10 10 15 21 19 14 9 3 4 5 2 1 3 3 4 5 4 2 3 4 2 2 4 3 2 2 3 2 2 3 2 2 3 3 2 0 2 1 0 3 6 4 1 1 2 2 3 3 0 4 5 5 6 5 4 3 3 3 1 0 3 4 2 3 4 4 5 6 4 2 1 1 5 7 7 10 11 10 15 16 13 10 7 6 6
11 3 5 10 11 19 24 13 6 5 3 4 5 4 5 4 3 5 7 6 4 4 5 3 3 4 3 3 4 4 3 3 4 5 4 5 4 2 1 1 1 1 3 3 0 1 2 3 2 3 4 4 6 5 1 4 6 5 2 2 3 3 3 3 5 2 1 2 1 2 3 2 1 2 1 5 8 12 17 17 15 18 17 13 12 9 7 8
12 5 5 10 15 24 21 6 4 5 4 4 5 8 9 5 4 7 8 8 6 5 6 4 4 5 4 5 5 5 5 4 4 6 5 4 3 2 1 0 2 3 4 2 1 1 3 3 1 3 4 3 4 4 5 4 4 3 1 0 3 3 4 4 4 1 1 3 3 3 4 2 2 3 3 7 11 14 18 18 16 17 16 14 13 10 8 9
11 8 7 9 17 26 17 4 5 7 6 5 5 7 10 8 8 8 7 9 8 5 3 4 6 7 6 5 6 6 5 4 4 5 4 3 2 2 1 1 2 2 1 2 2 2 2 1 2 1 3 5 5 4 5 5 2 2 2 2 2 3 3 2 2 1 2 5 6 6 5 2 1 0 2 5 7 9 14 18 16 15 16 16 14 12 10 10
7 7 7 10 19 26 16 5 4 6 7 8 7 8 8 7 10 13 10 9 11 8 4 4 7 8 6 5 5 5 5 4 2 2 2 2 1 0 2 1 4 4 3 4 6 6 3 2 3 4 4 6 4 3 2 1 2 0 1 2 2 3 4 2 1 3 4 2 2 4 4 2 1 1 1 3 5 6 12 17 17 17 17 17 15 14 12 11
6 4 5 8 17 24 21 12 5 2 4 7 6 7 10 7 7 14 14 10 12 12 6 4 7 7 4 5 5 4 5 4 3 2 2 2 1 1 2 3 6 7 7 7 7 5 3 1 3 5 6 7 5 5 4 3 1 3 5 5 6 5 5 4 3 4 3 1 3 7 6 5 7 6 5 5 6 7 10 14 17 18 17 15 13 13 12 11
5 3 5 7 9 15 19 16 9 3 3 7 5 4 11 11 6 9 13 11 11 12 6 3 6 6 4 6 5 3 4 3 3 4 3 3 2 1 2 4 6 6 6 6 4 4 4 1 3 5 6 7 5 4 3 1 2 6 7 8 9 7 5 6 5 4 2 2 7 11 7 5 9 10 6 6 7 7 9 12 16 18 17 14 12 11 11 10
6 2 7 10 7 6 10 15 14 10 6 6 4 2 6 11 9 8 9 6 8 12 7 3 6 7 6 7 5 4 5 3 3 4 3 3 2 1 2 3 3 3 4 3 2 4 4 3 4 4 5 7 5 4 4 3 3 5 6 9 11 11 8 7 7 7 6 7 10 12 10 9 11 11 7 6 7 9 12 14 14 14 16 14 12 12 11 10
9 4 4 8 5 4 10 17 18 15 11 7 4 3 3 7 9 7 5 3 3 7 7 5 6 7 7 7 6 4 5 5 4 3 2 3 2 3 1 1 1 1 4 3 1 3 4 2 3 3 4 7 6 4 3 4 5 7 10 12 14 14 12 8 9 9 9 11 13 12 13 14 12 7 6 7 7 8 9 7 6 11 16 15 13 13 11 8
7 4 3 3 4 4 7 14 15 11 10 8 7 6 3 3 6 4 3 4 4 3 6 8 7 5 6 7 7 5 6 6 6 4 4 4 2 2 2 1 1 1 3 2 1 1 2 1 1 2 0 6 4 1 2 5 6 7 11 14 13 12 11 11 10 9 8 10 12 10 10 12 8 3 4 5 4 6 8 9 11 13 14 14 13 11 9 7
7 3 1 3 2 3 4 8 10 7 6 8 9 7 5 6 7 4 0 2 5 3 5 9 8 3 2 5 7 7 6 8 8 6 7 6 4 3 1 2 4 4 1 1 0 1 2 1 1 4 1 6 3 3 4 6 4 7 13 17 15 11 10 10 8 7 9 10 9 7 8 9 5 3 3 3 6 8 9 10 11 12 13 13 12 10 8 7
10 7 5 2 1 3 3 4 6 7 6 7 9 8 7 7 7 6 2 1 4 2 3 9 11 5 2 5 6 7 9 11 11 9 8 6 4 5 3 3 6 5 4 3 1 0 3 3 1 3 2 5 2 4 4 2 4 7 12 13 14 12 11 10 9 10 11 8 6 7 8 7 5 5 5 3 5 7 9 10 10 11 11 10 9 8 7 7
Wind_Direction
190 188 187 189 189 193 197 200 208 211 214 221 223 230 235 240 247 256 266 275 282 289 295 299 306 309 312 316 318 321 324 324 322 318 317 315 290 272 321 11 357 352 341 331 311 278 269 315 325 313 325 336 344 266 269 241 205 139 88 109 243 223 206 213 209 313 281 260 303 284 20 57 28 343 320 292 275 276 287 287 283 279 275 280 292 295 287 283
208 206 205 205 208 210 212 216 219 222 226 230 234 242 248 252 260 263 268 276 281 286 292 296 302 305 308 313 315 318 322 323 320 319 326 331 182 133 88 27 7 357 341 326 317 278 210 55 9 319 307 316 275 238 227 208 195 177 134 144 227 214 226 268 289 320 341 305 311 336 354 359 328 322 323 295 274 280 284 285 287 285 282 288 298 293 289 291
224 221 223 222 224 225 228 230 229 233 235 237 242 246 251 257 262 265 269 273 278 282 288 292 297 301 304 308 311 316 322 324 323 333 26 72 100 92 40 354 352 351 341 316 299 239 161 97 329 267 237 266 240 227 219 191 198 203 176 174 242 227 260 286 295 313 322 318 328 338 326 320 311 312 313 284 279 282 264 272 285 288 288 293 297 294 298 307
232 232 235 234 236 238 241 242 242 245 246 249 252 253 258 262 263 267 271 273 277 280 284 289 293 297 301 305 309 315 323 327 331 43 80 89 82 40 348 331 329 335 333 306 293 226 176 187 255 248 224 248 250 235 216 199 210 193 171 191 236 239 272 278 290 306 311 318 324 319 319 313 309 307 299 286 288 278 256 265 274 282 290 292 290 290 293 297
239 239 241 241 243 244 247 250 253 255 256 259 261 263 265 267 269 271 274 276 279 281 285 288 291 296 298 304 307 314 329 341 26 89 87 324 341 325 319 315 313 320 318 296 285 237 205 202 199 224 233 251 261 242 220 215 216 198 204 217 229 246 268 276 290 303 305 309 308 310 314 305 308 301 288 279 267 266 271 278 279 281 288 289 289 291 291 289
244 244 244 247 248 250 255 257 260 262 264 268 268 271 272 274 276 278 280 282 283 285 288 290 292 295 299 302 304 311 323 296 255 291 284 290 295 298 305 307 306 307 301 277 261 229 213 206 199 224 228 240 248 224 250 239 219 220 251 234 236 246 255 280 292 300 303 302 294 298 297 296 305 297 288 271 261 275 282 284 284 284 286 288 289 290 289 288
249 249 249 251 254 256 259 260 264 266 268 271 272 275 277 278 281 282 284 286 287 289 291 292 293 294 298 300 301 306 288 267 278 282 284 289 286 293 304 306 307 295 281 251 249 224 194 192 203 232 228 245 251 227 262 273 235 220 256 246 242 252 264 286 295 298 302 298 289 299 298 288 283 286 292 282 278 286 291 289 287 286 288 288 287 287 287 287
253 254 254 256 259 261 263 265 266 268 270 272 274 276 278 280 282 284 286 288 289 291 292 293 294 294 297 297 300 299 276 280 292 287 283 282 280 292 300 306 309 282 268 243 250 206 189 217 221 241 238 252 264 257 289 311 282 230 251 270 270 286 292 297 300 298 298 295 292 296 289 277 270 276 284 282 286 296 302 299 294 290 291 289 287 288 288 286
252 255 257 259 262 265 267 269 269 271 274 275 278 280 282 284 286 289 290 290 291 292 293 293 292 292 293 292 295 291 283 292 302 291 282 275 275 281 284 297 293 274 264 235 235 192 202 244 248 249 253 283 288 295 319 341 304 294 320 326 322 313 306 304 304 299 295 290 286 284 279 277 276 279 279 277 288 306 309 304 299 294 291 290 289 289 289 286
250 253 257 260 262 266 269 271 274 276 278 280 282 283 286 287 289 290 290 290 290 289 289 287 287 288 286 284 273 267 290 301 300 291 280 268 269 268 271 283 277 271 260 238 227 204 211 239 265 271 278 303 322 313 325 325 290 329 344 335 318 312 307 304 302 294 289 284 278 261 263 275 271 266 269 278 296 311 305 305 304 298 290 287 288 290 291 289
251 254 256 259 261 265 268 271 274 276 279 280 281 283 285 286 287 287 286 286 284 285 284 281 283 282 282 278 242 241 287 296 288 282 271 267 268 265 271 280 277 266 251 236 216 212 220 232 256 272 275 297 324 318 324 311 305 329 340 333 312 314 308 298 290 285 283 281 273 243 243 274 268 197 249 276 301 306 299 303 303 299 296 291 289 288 291 293
254 256 257 259 261 263 266 269 271 273 275 277 279 280 282 284 284 285 284 284 283 283 281 280 280 278 280 272 254 262 286 284 276 273 269 270 268 268 278 283 279 261 247 235 215 214 223 232 247 251 256 284 325 328 327 318 331 328 330 330 304 324 309 288 277 275 272 272 270 226 231 285 253 227 251 274 297 299 297 297 296 299 300 302 302 298 301 307
256 257 258 260 262 264 266 268 269 270 272 273 277 279 281 283 284 285 285 285 285 283 282 281 279 279 274 266 269 279 282 272 266 264 265 268 269 274 279 278 272 259 250 239 223 220 225 234 243 246 259 274 289 291 294 313 330 322 317 182 295 339 308 279 274 272 271 265 243 178 166 280 245 251 262 284 296 297 298 293 294 298 298 304 308 308 314 326
253 255 256 258 261 263 265 266 267 268 270 274 276 279 282 285 285 285 286 286 285 283 282 279 278 279 266 262 278 281 270 265 257 255 261 266 270 274 273 269 264 255 245 238 233 229 229 235 242 251 261 264 273 283 302 320 317 303 312 122 280 297 277 282 287 286 288 259 203 168 191 263 249 265 272 290 294 293 296 291 292 294 298 304 308 315 329 14
249 251 252 254 255 256 259 260 263 265 269 274 277 282 285 287 287 286 287 287 286 284 280 278 276 273 265 268 276 272 261 254 249 253 260 262 268 271 269 265 257 246 236 235 235 234 238 239 240 249 261 266 275 294 339 341 309 283 285 311 279 207 264 293 297 291 256 231 181 163 225 259 255 267 268 282 287 288 292 288 288 297 309 315 326 352 53 76
245 246 247 248 247 249 251 254 258 262 269 275 281 288 289 291 292 290 289 286 282 278 273 273 266 252 262 279 274 255 247 242 244 254 251 251 261 265 267 267 250 236 227 229 235 237 242 246 245 245 254 264 249 107 42 357 319 315 195 246 255 233 271 295 305 308 162 142 205 205 242 264 269 258 255 270 279 284 289 285 291 315 329 346 40 68 84 80
240 240 241 242 242 243 245 249 256 263 272 281 289 293 295 296 295 290 285 279 273 267 261 254 246 243 256 265 260 245 244 240 238 240 236 241 250 258 279 275 241 219 215 220 231 232 236 226 197 220 241 243 146 104 46 329 283 303 240 229 246 242 254 275 305 317 135 144 254 249 235 248 265 263 262 270 277 282 284 284 300 332 4 67 79 77 76 70
235 235 236 238 238 239 239 248 258 266 278 286 293 300 305 299 289 287 282 274 262 252 254 231 202 242 258 248 259 271 254 229 226 231 232 239 252 265 268 257 227 188 185 208 218 192 199 196 158 169 284 199 133 128 182 236 219 243 246 253 267 249 249 265 279 287 276 263 267 277 265 258 270 277 273 272 274 275 274 284 306 345 78 92 82 78 73 67
229 226 228 230 231 233 233 244 254 263 277 290 304 309 308 297 283 279 270 255 234 213 247 211 187 199 260 268 291 287 260 230 236 248 248 249 254 251 229 210 204 172 156 169 207 176 168 141 116 145 247 215 211 190 206 222 210 225 238 242 257 257 262 262 261 267 281 291 281 274 271 270 279 279 277 279 280 278 280 293 314 83 100 92 85 82 76 70
219 216 221 223 223 226 227 234 247 264 278 292 309 309 303 302 304 272 245 242 236 241 261 248 240 254 266 280 293 283 262 246 251 254 253 247 228 215 194 175 176 172 162 157 184 187 169 138 156 196 211 215 221 216 218 228 225 235 250 257 257 260 271 270 271 280 298 307 264 262 287 298 293 289 284 286 292 299 297 303 79 100 91 85 86 83 80 77
209 212 219 222 222 223 224 230 244 273 290 298 311 312 296 293 298 276 272 270 264 261 264 263 259 258 263 268 269 272 267 257 254 248 244 221 191 187 185 169 152 190 225 176 137 158 161 171 221 213 213 220 229 227 227 243 244 243 245 259 270 263 266 272 276 285 318 329 263 296 337 312 299 288 282 288 306 333 345 77 97 93 85 84 85 84 84 85
208 211 219 226 227 227 229 235 248 268 294 302 310 317 298 286 279 286 295 285 280 276 268 264 259 253 257 259 258 262 259 250 243 230 228 205 180 187 188 166 151 204 217 155 110 123 166 221 238 226 218 228 251 251 244 253 256 265 269 285 286 271 283 292 294 312 355 353 277 314 324 295 288 279 290 318 43 53 67 90 93 89 88 83 83 86 88 89
213 211 224 234 234 234 235 243 256 267 285 290 298 302 296 292 290 303 301 274 285 290 273 259 257 252 251 251 249 247 240 241 245 228 225 201 184 195 189 169 175 203 200 168 155 162 184 232 238 234 223 224 256 260 257 266 271 275 271 281 281 285 313 290 302 331 337 289 262 306 311 297 283 281 335 46 84 78 74 84 86 88 89 86 88 89 90 90
220 215 226 234 234 233 234 249 264 274 276 268 279 278 284 287 293 320 306 261 281 290 273 256 251 250 245 238 234 231 225 234 246 223 211 195 186 193 193 184 182 195 213 197 183 188 210 227 227 230 212 201 234 257 259 262 284 272 222 220 254 267 252 238 273 323 323 319 349 7 343 309 268 269 31 72 80 76 76 81 82 86 90 92 93 90 90 90
226 223 226 229 231 228 227 247 261 266 251 217 215 214 223 290 308 338 323 289 288 276 265 242 229 236 228 220 222 220 213 223 221 197 192 188 185 185 199 196 187 202 228 215 197 207 237 242 231 241 245 203 208 247 242 211 261 301 237 210 212 210 211 231 323 359 14 338 334 40 10 293 287 293 224 130 68 62 71 75 80 84 88 93 91 89 89 90
232 231 231 231 234 232 230 231 223 217 199 179 172 177 197 264 326 347 349 20 315 257 226 193 196 212 206 206 201 185 187 227 192 176 180 185 188 183 189 199 188 207 220 213 213 219 229 234 212 210 231 201 192 242 229 177 154 300 250 190 162 143 130 56 18 24 51 258 293 61 104 267 309 296 261 135 90 74 72 68 76 80 82 87 89 91 92 90
238 236 234 233 234 234 237 227 209 208 205 194 172 169 204 203 359 353 20 10 295 205 141 160 176 171 174 171 165 155 155 184 158 171 184 189 199 196 208 219 179 211 209 127 59 258 198 175 123 139 170 170 188 243 228 153 136 248 241 144 109 84 77 55 73 69 227 248 316 324 188 256 277 255 257 121 102 90 81 71 70 78 81 87 90 93 94 93
242 242 240 242 253 250 243 238 226 222 217 201 171 172 193 181 248 22 68 335 277 133 126 154 148 155 157 159 166 154 135 150 142 184 195 198 205 192 223 235 179 240 246 124 170 270 190 165 196 168 140 166 201 234 208 139 137 236 222 134 99 105 162 162 123 202 260 20 314 276 184 243 264 258 267 121 133 184 138 118 93 91 92 93 94 93 94 95
244 246 244 246 260 256 241 235 228 218 212 199 180 183 189 200 242 63 94 218 290 96 159 163 143 162 149 148 176 170 146 151 137 175 182 193 194 167 213 238 218 287 277 146 188 258 275 168 199 152 142 203 219 243 189 145 177 217 174 100 45 51 144 135 137 155 4 38 257 248 182 188 266 282 308 122 179 202 163 138 119 106 100 98 98 98 97 98
244 247 244 241 250 250 242 239 229 213 207 197 186 186 184 192 161 125 193 216 47 82 146 148 163 162 142 129 185 195 166 160 132 139 139 173 186 181 15 237 17 56 351 351 259 253 283 34 347 158 192 203 179 129 66 127 163 127 91 50 20 6 21 54 103 103 60 296 251 233 199 186 268 292 229 193 208 171 153 149 138 112 100 98 98 100 99 99
244 244 240 239 247 248 242 240 227 206 200 191 184 180 163 124 112 184 214 209 49 138 124 144 181 145 147 138 159 191 157 142 148 138 116 133 171 220 9 47 20 54 12 335 304 288 311 350 275 227 213 175 123 85 18 40 106 100 77 64 32 338 5 32 6 47 96 253 261 243 199 178 216 264 234 284 327 150 149 159 154 120 100 96 95 99 98 97
251 247 241 239 244 241 232 231 214 195 195 187 178 168 138 128 229 200 223 28 52 201 153 184 197 160 173 159 158 183 157 164 177 158 151 145 148 200 192 175 164 54 330 266 281 316 258 232 247 271 225 177 124 77 341 358 42 91 91 86 74 332 358 13 309 70 201 245 249 214 144 162 220 251 269 28 12 36 100 122 132 120 109 103 99 100 99 99
251 243 233 226 226 223 218 220 205 189 189 183 172 153 117 208 218 172 191 221 204 181 136 139 156 149 152 152 197 190 150 183 185 175 175 148 153 231 246 225 179 155 243 212 280 334 304 297 264 125 283 192 155 147 226 280 135 140 138 131 133 144 167 258 254 248 262 262 246 210 103 264 247 281 12 49 43 66 91 106 118 117 114 110 107 106 103 100
226 217 211 203 205 211 212 217 202 182 183 181 165 134 148 215 208 161 197 221 227 77 89 102 122 122 130 167 218 181 152 220 181 166 171 142 153 237 259 247 210 183 176 177 286 192 227 307 233 188 237 175 170 186 174 143 154 179 161 142 145 157 174 215 224 217 257 276 274 268 282 209 211 335 46 79 79 84 96 107 113 113 116 116 114 112 106 102
202 201 202 200 204 210 213 215 198 176 180 178 159 159 204 205 187 166 203 225 206 109 34 53 115 123 209 244 245 199 179 226 175 148 168 167 175 203 207 221 207 186 140 154 245 184 185 260 249 231 143 156 173 219 147 108 97 217 134 112 168 189 168 196 231 205 208 283 286 261 240 207 155 78 67 86 81 82 93 103 107 109 117 121 118 114 109 104
209 209 209 212 213 211 212 212 198 185 185 174 163 229 214 199 180 178 201 207 188 144 127 47 101 141 232 261 265 238 190 189 159 129 210 206 198 210 213 222 193 180 166 165 213 191 171 260 278 16 61 176 177 198 156 123 193 208 105 179 222 179 134 146 275 265 132 255 261 216 247 280 91 75 62 81 78 79 87 96 104 114 123 125 123 119 114 107
220 219 219 220 218 213 208 206 203 199 191 179 199 227 196 200 207 198 265 157 166 126 139 183 188 174 207 223 228 222 164 86 166 149 226 230 222 213 205 242 70 183 187 181 212 208 165 267 274 145 201 230 182 126 20 50 110 136 170 223 231 73 83 111 264 316 325 251 264 251 248 250 210 227 193 101 103 101 102 105 111 122 131 131 130 127 121 110
222 226 228 226 222 214 204 203 205 201 191 185 226 228 185 206 212 206 244 192 135 93 151 205 208 169 179 187 218 207 152 165 180 171 213 229 234 208 174 168 15 43 181 163 163 238 129 297 285 249 184 254 56 87 337 1 61 125 177 223 123 83 308 6 146 229 251 252 273 279 262 247 220 204 175 176 168 146 141 133 130 144 149 145 141 136 128 116
220 223 232 231 224 214 204 202 201 199 194 195 227 225 192 205 218 210 217 228 141 120 180 217 200 141 156 160 173 160 143 175 180 171 176 209 242 337 88 137 50 16 40 122 146 250 103 126 281 301 305 299 28 66 212 278 2 52 44 347 51 158 191 215 189 180 212 241 260 272 268 264 236 190 178 199 186 158 152 151 161 171 164 157 149 142 140 137
218 216 240 230 216 207 201 199 199 198 202 218 209 203 129 205 230 223 219 221 151 153 213 219 171 172 166 159 170 154 147 193 179 176 224 237 289 360 44 31 88 8 19 64 100 53 71 141 232 303 338 31 29 185 180 189 196 55 35 313 287 219 187 260 245 166 165 216 245 257 260 262 252 219 199 193 166 151 160 158 174 184 174 168 160 156 172 180
207 209 249 220 197 191 190 193 201 200 215 231 202 163 163 194 214 228 217 199 188 228 227 208 200 193 174 185 187 157 166 184 174 200 218 229 275 288 165 1 4 291 26 46 57 55 105 161 185 276 315 191 226 225 168 154 151 137 165 200 187 166 186 276 265 217 171 205 214 235 259 271 258 266 160 140 135 153 167 162 176 189 183 180 184 188 203 210
181 192 240 209 187 181 180 187 211 205 221 228 207 209 206 175 175 204 200 188 196 218 215 219 227 203 191 221 210 172 178 192 191 204 214 219 230 228 182 342 25 100 91 84 70 125 113 109 123 253 246 220 238 250 168 139 148 143 173 200 161 148 150 212 249 247 224 235 200 210 253 277 246 251 155 135 152 168 171 170 182 193 195 199 204 207 212 213
184 196 201 192 182 175 174 189 219 204 236 224 208 221 213 183 179 195 190 191 196 186 191 208 208 207 216 216 208 199 195 205 210 205 207 213 208 212 257 223 81 66 84 120 231 50 87 90 102 272 287 300 301 323 8 43 117 142 308 49 143 165 170 193 221 217 221 238 253 271 253 228 220 232 165 154 165 172 178 185 194 202 208 213 214 216 219 211
193 198 184 182 178 174 178 215 197 200 231 218 216 231 223 213 203 195 185 192 195 176 175 201 198 207 219 205 204 211 197 208 245 223 198 175 169 193 262 175 134 83 77 158 171 153 132 114 124 170 304 316 331 344 355 8 52 139 247 253 172 161 165 170 178 184 229 222 224 250 254 234 212 197 125 158 174 188 201 204 209 219 225 227 223 220 218 208
182 196 197 195 183 182 198 232 179 201 222 215 230 234 228 235 215 206 201 193 194 183 165 209 205 198 199 189 197 214 201 195 228 235 164 107 109 60 45 108 157 136 111 131 134 136 152 166 133 142 219 245 255 245 225 336 5 234 259 272 233 176 178 189 219 233 245 229 200 244 249 266 283 211 205 222 207 215 228 225 224 230 234 232 226 219 212 202
176 194 191 187 187 197 218 230 203 197 207 203 228 230 222 239 230 208 202 200 204 195 181 209 202 189 195 187 181 209 220 193 172 185 135 118 195 313 45 96 122 124 120 114 111 113 117 201 171 164 201 222 221 211 178 112 79 266 278 279 268 244 203 200 235 234 233 333 283 256 245 261 274 255 214 218 224 228 238 233 226 226 229 227 219 208 201 193
185 207 177 167 186 208 224 230 219 203 193 197 209 222 214 218 228 213 206 207 203 193 196 241 199 186 197 183 171 207 217 185 177 191 163 133 150 346 43 82 96 115 121 103 90 101 99 277 226 183 213 237 229 230 243 94 200 234 254 263 264 256 209 195 219 218 197 267 264 260 252 243 262 265 234 204 215 229 242 243 235 226 219 213 203 193 190 190
193 236 186 174 182 205 213 217 213 210 221 217 218 271 220 204 204 208 206 205 195 187 191 234 210 195 185 171 169 198 196 191 216 203 159 129 130 92 29 25 59 114 109 78 73 107 114 247 238 174 225 255 255 260 287 300 248 237 248 258 263 258 238 222 225 219 212 237 257 265 267 257 260 267 258 226 221 229 244 259 254 226 203 193 186 182 185 189
209 259 221 187 206 232 207 203 203 209 221 221 232 263 218 194 207 207 174 148 214 204 192 210 216 194 182 174 161 174 189 186 210 223 153 121 131 139 119 359 349 114 92 71 56 98 104 243 243 168 228 263 264 259 281 281 266 267 264 258 260 262 258 248 240 230 221 233 249 260 266 266 265 257 249 254 245 222 220 227 206 182 178 177 177 180 184 188
205 239 249 235 264 264 211 195 192 204 219 215 229 238 202 196 220 212 165 170 198 217 200 203 205 187 190 187 172 194 208 176 173 195 166 144 151 166 168 193 178 97 65 72 345 30 93 189 240 109 223 283 281 160 223 254 254 268 272 264 261 266 269 261 250 244 236 240 249 255 261 267 267 239 231 241 207 166 161 164 165 167 172 176 179 181 184 187
204 215 279 336 295 228 199 184 180 194 215 212 222 223 207 219 215 183 349 205 170 183 209 193 176 135 157 182 183 203 192 144 140 149 141 142 160 160 159 176 151 121 89 152 169 22 87 177 328 80 86 281 296 121 218 269 298 285 271 264 259 256 258 257 247 233 234 242 249 251 253 259 266 266 246 196 151 144 142 148 158 167 174 179 180 182 186 192
222 246 256 312 310 222 199 169 174 195 209 208 217 222 217 221 203 177 216 321 110 118 236 192 166 125 120 182 186 178 151 130 124 126 119 112 115 110 102 138 149 143 150 157 150 140 129 133 152 118 163 268 282 142 195 288 343 284 262 254 250 248 250 255 255 244 238 236 237 238 244 251 253 252 244 200 143 137 130 129 143 160 172 185 195 199 202 203